Regional Weather Roundup
Issued by NWS

Home | Current Version | Previous Version | Text Only | Print | Product List | Glossary On
Versions: 1 2 3 4 5 6 7 8 9 10 11 12 13 14 15 16 17 18 19 20 21 22 23 24 25 26 27 28
000
ASUS46 KPQR 240510
RWROR

OREGON REGIONAL WEATHER ROUNDUP
NATIONAL WEATHER SERVICE PORTLAND OR
1000 PM PDT MON APR 23 2018

NOTE: "FAIR" INDICATES FEW OR NO CLOUDS BELOW 12,000 FEET WITH
NO SIGNIFICANT WEATHER AND/OR OBSTRUCTIONS TO VISIBILITY.

ORZ001>013-240600-
NORTHWEST OREGON


CITY           SKY/WX    TMP DP  RH WIND       PRES   REMARKS
ASTORIA        CLEAR     63  33  32 E12       30.13S
TILLAMOOK      CLEAR     61  30  31 NE7       30.11S
NEWPORT        CLEAR     64  32  29 E12G20    30.06R
PORTLAND       PTCLDY    64  28  25 E23G31    30.16R
VANCOUVER WA   CLEAR     65  27  23 E16G26    30.17R
SCAPPOOSE      CLEAR     51  38  60 W5        30.18R
HILLSBORO      CLEAR     64  29  26 E15       30.17R
AURORA         CLEAR     65  23  20 NE9       30.15R
MCMINNVILLE    CLEAR     60  29  30 N9        30.14R
SALEM          CLEAR     59  32  36 NW3       30.11R
CORVALLIS      CLEAR     58  37  45 N8        30.08R
EUGENE         CLEAR     52  42  69 N9        30.05R
$$

ORZ021-028-240600-
SOUTHWEST OREGON


CITY           SKY/WX    TMP DP  RH WIND       PRES   REMARKS
NORTH BEND     CLEAR     54  50  86 W3        30.00R FOG
BROOKINGS      CLEAR     63  42  46 CALM      29.97R
ROSEBURG       CLEAR     61  44  53 CALM      30.02R
SEXTON SUMMIT  CLEAR     61  21  21 E7        30.11R
GRANTS PASS    FAIR      59  37  44 CALM      30.03R
MEDFORD        CLEAR     64  30  27 S3        30.02R
$$

ORZ014>016-041-240600-
COLUMBIA GORGE


CITY           SKY/WX    TMP DP  RH WIND       PRES   REMARKS
TROUTDALE      CLEAR     63  29  27 E16       30.17R
HOOD RIVER     CLEAR     55  28  35 CALM      30.31S
THE DALLES     CLEAR     53  30  41 CALM      30.31R
$$

ORZ029>031-041-044-049-050-061>064-502-503-505>511-240600-
EASTERN OREGON


CITY           SKY/WX    TMP DP  RH WIND       PRES   REMARKS
MADRAS         CLEAR     41  27  56 N8        30.31R
REDMOND        CLEAR     48  24  39 NW8       30.27R
BEND           CLEAR     48  23  37 NW8       30.29R
PRINEVILLE     CLEAR     48  25  40 N8        30.27R
KLAMATH FALLS  CLEAR     51  26  37 E13       30.16R
LAKEVIEW       CLEAR     37  23  56 N9        30.22R
HERMISTON      CLEAR     47  31  53 S3        30.30R
PENDLETON      CLEAR     51  31  46 S5        30.31R
JOHN DAY       CLEAR     46  27  46 NW3       30.29R
MEACHAM        CLEAR     36  27  69 CALM      30.33R
LA GRANDE      CLEAR     49  29  46 NW12      30.31R
BAKER CITY     CLEAR     43  26  51 NW8       30.30R
BURNS          CLEAR     38  22  52 NE7       30.27R
ROME             N/A     45  16  31 E7        30.25R
ONTARIO        CLEAR     53  26  35 N10       30.25R
$$




USA.gov is the U.S. government's official web portal to all federal, state and local government web resources and services.